Tracking 27428 objects as of 31-May-2023
HD Live streaming from Space Station
objects crossing your sky now

STARLINK-3751

Track STARLINK-3751 now!
10-day predictions
STARLINK-3751 is classified as:


NORAD ID: 52289
Int'l Code: 2022-041AE
Perigee: 546.2 km
Apogee: 547.5 km
Inclination: 53.2 °
Period: 95.4 minutes
Semi major axis: 6917 km
RCS: Unknown
Launch date: April 21, 2022
Source: United States (US)
Launch site: AIR FORCE EASTERN TEST RANGE (AFETR)
Your satellite tracking list
Your tracking list is empty




NASA's NSSDC Master Catalog

Two Line Element Set (TLE):
1 52289U 22041AE  23150.77606510  .00000631  00000-0  57712-4 0  9994
2 52289  53.2168 330.7557 0000984  86.2090 273.9015 15.08845573 61436
Source of the keplerian elements: AFSPC